Hourly Data Report for October 04, 2016

All times are specified in Local Standard Time (LST). Add 1 hour to adjust for Daylight Saving Time where and when it is observed.

EUREKA CLIMATE
NUNAVUT

79°59'21.000" N
85°56'02.000" W
10.00 m
2401199
71613
NEK

Download Data

Hourly Data (October 2016)
Hourly Data Report for October 4, 2016
Temp Definition
°C
Dew Point Temp Definition
°C
Rel Hum Definition
%
Wind Dir Definition
10's deg

Wind Spd Definition
km/h
Visibility Definition
km
Stn Press Definition
kPa
Hmdx Definition


Wind Chill Definition


Weather Definition


TIME
00:00 -17.9 -19.3 89 9 4   100.30   -21 LegendNANA
01:00 -18.5 -19.9 88 10 4   100.30   -22 LegendNANA
02:00 -18.7 -20.2 88 10 3   100.31   -21 LegendNANA
03:00 -18.6 -20.1 88 7 2   100.31   -20 LegendNANA
04:00 -18.4 -19.8 88 11 3   100.30   -21 LegendNANA
05:00 -18.7 -20.1 88 10 3   100.29   -21 LegendNANA
06:00 -17.6 -19.0 89 10 2   100.29   -19 LegendNANA
07:00 -16.9 -18.1 90 8 1   100.27   -18 LegendNANA
08:00 -15.7 -16.8 91 6 1   100.27   -16 LegendNANA
09:00 -15.0 -16.1 92 3 1   100.25   -16 LegendNANA
10:00 -14.0 -15.0 92 10 1   100.26   -15 LegendNANA
11:00 -13.8 -14.8 92 8 1   100.25   -14 LegendNANA
12:00 -13.1 -14.0 93 9 1   100.23   -14 LegendNANA
13:00 -13.2 -14.1 93 28 1   100.22   -14 LegendNANA
14:00 -13.6 -14.5 93 22 1   100.24   -14 LegendNANA
15:00 -14.1 -15.1 92 34 1   100.24   -15 LegendNANA
16:00 -13.5 -14.4 93 6 1   100.23   -14 LegendNANA
17:00 -11.1 -11.8 94 13 3   100.22   -13 LegendNANA
18:00 -11.1 -11.8 95 13 3   100.23   -13 LegendNANA
19:00 -10.0 -10.6 95 12 4   100.24   -12 LegendNANA
20:00 -9.5 -10.2 95 12 4   100.23   -12 LegendNANA
21:00 -9.0 -9.7 94 13 22   100.24   -17 LegendNANA
22:00 -8.8 -10.0 91 13 25   100.25   -17 LegendNANA
23:00 -8.3 -9.7 90 14 27   100.27   -17 LegendNANA

Notes on Data Quality.

Legend

  • E = Estimated
  • M = Missing
  • NA = Not Available
  • ‡ = Partner data that is not subject to review by the National Climate Archives
Date modified: